CZ-3B R/B (47614 NORAD) Tracking and Keplerian Element Data

This shows tracking and keplerian element data for the satellite.

Feedback or suggestion? Click here.




ElementValue
Catalog47614
NameCZ-3B R/B
Epoch Orbit30
Epoch Day47.97793484
Epoch Year2021
RAAN1.4589
Inclination28.496
Eccentricity0.7227469
Argument of Perigee186.8862
Mean Anonmoly153.5546
Mean Motion2.3994152
Decay Rate0.00089695
L11 47614U 21010B 21047.97793484 .00089695 97386-6 15108-2 0 9994
L22 47614 28.4960 1.4589 7227469 186.8862 153.5546 2.39941520 303

Live tracking and technical data element details for CZ-3B R/B (NORAD 47614). CZ-3B R/B can be tracked NOW for your location showing map with azimuth and elevation plus other details from your city location.

Track the satellite on the map from your city or location and see movement details for azimuth, elevation, latitude, longitude, range, height, and movement on the map or in text.







IsCatalogInMostPopularTable: catalog: 47614, numindb: 4
Update: records affected: 1



GetName: 47614 CZ-3B R/B

Hit Count: updated at: Mon, 01 Mar 2021 15:43:22 GMT